Location: Unspecified
(35.6961°N, 0.0000°E)
Time: 19:54:14
(UTC+00:00)

Transit 4A - All Passes

Search period start: 22 May 2019 00:00
Search period end: 01 June 2019 00:00
Orbit: 862 x 983 km, 66.8° (Epoch: 22 May)

Date Brightness Start Highest point End Pass type
(mag) Time Alt. Az. Time Alt. Az. Time Alt. Az.
22 May - 01:30:36 10° NW 01:36:12 33° WSW 01:41:42 10° S visible
22 May - 13:06:46 10° ESE 13:07:54 10° E 13:09:02 10° E daylight
22 May - 14:47:06 10° SSW 14:53:14 86° ESE 14:59:36 10° NNE daylight
22 May - 16:36:35 10° W 16:40:27 17° NW 16:44:23 10° N daylight
22 May - 22:10:33 10° NNE 22:11:38 10° NE 22:12:41 10° NE visible
22 May - 23:53:09 10° NNW 23:59:28 56° ENE 00:05:37 10° SE visible
23 May - 01:40:40 10° WNW 01:45:19 22° WSW 01:49:53 10° SSW visible
23 May - 13:12:57 10° SE 13:16:54 18° ESE 13:20:55 10° ENE daylight
23 May - 14:56:30 10° SW 15:02:36 64° WNW 15:08:55 10° NNE daylight
23 May - 16:48:12 10° WNW 16:50:17 12° NW 16:52:23 10° NNW daylight
23 May - 22:17:56 10° N 22:21:30 15° NE 22:25:02 10° ENE visible
24 May - 00:02:25 10° NNW 00:08:52 83° ENE 00:15:08 10° SSE visible
24 May - 01:51:32 10° WNW 01:54:21 13° W 01:57:08 10° SW visible
24 May - 13:20:52 10° SSE 13:25:59 28° ESE 13:31:13 10° NE daylight
24 May - 15:06:14 10° SW 15:12:04 43° WNW 15:18:06 10° NNE daylight
24 May - 22:26:28 10° N 22:31:15 21° NE 22:35:58 10° E visible
25 May - 00:11:50 10° NNW 00:18:11 67° WSW 00:24:22 10° SSE visible
25 May - 13:29:22 10° S 13:35:07 43° ESE 13:41:03 10° NE daylight
25 May - 15:16:16 10° WSW 15:21:37 30° NW 15:27:07 10° N daylight
25 May - 22:35:20 10° N 22:40:55 30° NE 22:46:23 10° ESE visible
26 May - 00:21:25 10° NW 00:27:24 44° WSW 00:33:15 10° S visible
26 May - 13:38:16 10° SSW 13:44:20 67° ESE 13:50:38 10° NNE daylight
26 May - 15:26:41 10° W 15:31:17 21° NW 15:35:58 10° N daylight
26 May - 22:44:22 10° NNW 22:50:28 44° ENE 22:56:25 10° SE visible
27 May - 00:31:15 10° NW 00:36:34 28° WSW 00:41:46 10° SSW visible
27 May - 12:05:30 10° SE 12:08:11 13° E 12:10:53 10° ENE daylight
27 May - 13:47:29 10° SSW 13:53:40 82° WNW 14:00:02 10° NNE daylight
27 May - 15:37:39 10° WNW 15:41:02 15° NW 15:44:29 10° N daylight
27 May - 21:09:56 10° NNE 21:12:16 12° NE 21:14:34 10° ENE visible
27 May - 22:53:33 10° NNW 22:59:55 65° ENE 23:06:08 10° SE visible
28 May - 00:41:32 10° WNW 00:45:38 18° WSW 00:49:42 10° SW visible
28 May - 12:12:44 10° SSE 12:17:13 21° ESE 12:21:47 10° ENE daylight
28 May - 13:57:01 10° SW 14:03:04 55° WNW 14:09:19 10° NNE daylight
28 May - 15:50:23 10° NW 15:50:55 10° NW 15:51:27 10° NW daylight
28 May - 21:18:01 10° N 21:22:05 17° NE 21:26:06 10° E visible
28 May - 23:02:52 10° NNW 23:09:17 86° WSW 23:15:33 10° SSE visible
29 May - 00:53:17 10° W 00:54:39 11° W 00:56:00 10° WSW visible
29 May - 12:20:55 10° S 12:26:19 33° ESE 12:31:52 10° NE daylight
29 May - 14:06:51 10° WSW 14:12:33 37° NW 14:18:26 10° NNE daylight
29 May - 21:26:42 10° N 21:31:49 24° NE 21:36:49 10° ESE visible
29 May - 23:12:20 10° NW 23:18:35 57° WSW 23:24:39 10° S visible
30 May - 12:29:34 10° S 12:35:29 51° ESE 12:41:36 10° NE daylight
30 May - 14:17:01 10° WSW 14:22:09 26° NW 14:27:24 10° N daylight
30 May - 21:35:38 10° N 21:41:26 35° NE 21:47:05 10° ESE visible
30 May - 23:22:00 10° NW 23:27:46 37° WSW 23:33:25 10° S visible
31 May - 12:38:36 10° SSW 12:44:45 78° ESE 12:51:07 10° NNE daylight
31 May - 14:27:37 10° W 14:31:50 18° NW 14:36:09 10° N daylight
31 May - 21:44:43 10° NNW 21:50:57 50° ENE 21:57:00 10° SE visible
31 May - 23:31:58 10° NW 23:36:54 24° WSW 23:41:45 10° SSW visible
